Location: Zagreb
(45.8000°N, 16.0000°E)
Time: 20:00:00
(UTC+01:00)

Oscar 11 - Pass Details

Date: 31 October 2020
Orbit: 613 x 625 km, 97.6° (Epoch: 01 December)

Event Time Altitude Azimuth Distance (km) Brightness Sun altitude
Rises 17:55:44 0° 186° (S) 2,883 10.7 -13.1°
Reaches altitude 10° 17:58:02 10° 194° (SSW) 1,980 9.9 -13.5°
Maximum altitude 18:02:03 38° 263° (W) 952 8.7 -14.2°
Drops below altitude 10° 18:06:06 10° 332° (NNW) 1,989 9.9 -14.9°
Sets 18:08:25 0° 340° (NNW) 2,897 10.7 -15.3°
